Starlink 32709

operational
NORAD ID: 62439 Int'l Des: 2024-251 Owner: SPXS Country: US Constellation: starlink
LEOCIRCULAR

Starlink 32709について

説明を読み込み中...

リアルタイム位置

3D地球を読み込み中...

次回通過

高度履歴

Altitude vs Time

uPlot chart will show altitude changes over time

軌道要素

1 62439U 24251H 25304.75548402 .00043725 00000-0 14798-2 0 9999
2 62439 53.1596 214.5022 0002138 95.0664 265.0581 15.30199116 48202
Epoch: Oct 31, 2025 • Age: 25 hours

現在のステータス

高度 488.2 km
速度 7.62 km/s
衛星直下点 -37.12°S, 150.95°W
打ち上げ日 Dec 29, 2024
運用期間 0.8 years
タイプ internet

技術仕様

分類 Payload
質量 730.00 kg
乾燥質量 700.00 kg
総質量 730.00 kg
長さ 0.30 m
直径 4.10 m
スパン 29.00 m
形状 Box + pan
製造者 SPXS
バスタイプ Starlink V2M
フェーズステータス In Orbit
所有者/国 SPXS/US

大規模コンステレーション

Loading constellations...